Find Starlink 36441

NORAD ID: 67469 Int'l Des: 2026-008 Owner: SPXS Country: US Constellation: starlink operational
LEOCIRCULAR

实时位置

正在加载3D地球...

关于 Starlink 36441

正在加载描述...

即将过境

Passes for default location (London). Set your location on the main map for personalized predictions.

高度历史

Loading altitude history...

两行轨道根数

1 67469U 26008AA 26107.03897016 .00012015 00000-0 44530-3 0 9996
2 67469 43.0021 348.9502 0001308 275.4513 84.6190 15.27588913 15434
Epoch: Apr 17, 2026 • Age: 16 hours

当前状态

高度 482.6 km
速度 7.63 km/s
星下点 0.08°N, 109.91°W
发射日期 Jan 14, 2026
运行时间 0.2 years
类型 internet

技术详情

分类 Payload
质量 575.00 kg
干质量 530.00 kg
总质量 575.00 kg
长度 0.30 m
直径 4.10 m
跨度 29.00 m
形状 Box + pan
制造商 SPXS
平台类型 Starlink V2MO
阶段状态 In Orbit
所有者/国家 SPXS/US

Most Searched